RXJ2502 LKPR-LKMT

Flight info

Callsign RXJ2502
Flight time 0h 44m
Altitude 23000
Route VOZ DCT BODAL DCT BNO DCT UPLAV
Aircraft B736/M-SDE2E3FGHIRWXY/LB1

Departure

Time 2026-04-15 09:36
Airport Václav Havel Airport Prague (LKPR)

Arrival

Time 2026-04-15 10:20
Airport Leoš Janáček Airport Ostrava (LKMT)
Time Latitude Longitude Altitude Speed Heading
2026-04-15 09:02 50.10594 14.26282 1173 ft 0 kts 35°
2026-04-15 09:23 50.10592 14.26281 1173 ft 2 kts 35°
2026-04-15 09:23 50.10579 14.26266 1171 ft 2 kts 35°
2026-04-15 09:23 50.10565 14.26251 1169 ft 2 kts 34°
2026-04-15 09:24 50.10551 14.26239 1171 ft 2 kts
2026-04-15 09:24 50.10538 14.26243 1171 ft 1 kts 314°
2026-04-15 09:24 50.10536 14.26246 1171 ft 0 kts 311°
2026-04-15 09:27 50.10538 14.26231 1172 ft 3 kts 279°
2026-04-15 09:27 50.10540 14.26214 1169 ft 0 kts 278°
2026-04-15 09:28 50.10540 14.26176 1171 ft 6 kts 267°
2026-04-15 09:28 50.10538 14.26133 1173 ft 2 kts 258°
2026-04-15 09:28 50.10535 14.26113 1173 ft 5 kts 257°
2026-04-15 09:28 50.10515 14.26033 1172 ft 9 kts 226°
2026-04-15 09:29 50.10472 14.26026 1174 ft 6 kts 144°
2026-04-15 09:29 50.10448 14.26080 1171 ft 6 kts 123°
2026-04-15 09:29 50.10372 14.26242 1173 ft 24 kts 127°
2026-04-15 09:29 50.10275 14.26443 1175 ft 23 kts 127°
2026-04-15 09:30 50.10180 14.26636 1175 ft 22 kts 127°
2026-04-15 09:30 50.10090 14.26824 1185 ft 21 kts 128°
2026-04-15 09:30 50.10007 14.26995 1195 ft 18 kts 127°
2026-04-15 09:30 50.09935 14.27144 1199 ft 17 kts 127°
2026-04-15 09:31 50.09864 14.27290 1201 ft 17 kts 128°
2026-04-15 09:31 50.09786 14.27415 1204 ft 16 kts 136°
2026-04-15 09:31 50.09733 14.27496 1205 ft 15 kts 135°
2026-04-15 09:31 50.09659 14.27610 1207 ft 15 kts 135°
2026-04-15 09:32 50.09587 14.27721 1210 ft 14 kts 135°
2026-04-15 09:32 50.09515 14.27831 1212 ft 14 kts 135°
2026-04-15 09:32 50.09432 14.27958 1214 ft 20 kts 135°
2026-04-15 09:32 50.09329 14.28116 1214 ft 21 kts 135°
2026-04-15 09:33 50.09231 14.28263 1211 ft 18 kts 146°
2026-04-15 09:33 50.09142 14.28259 1210 ft 0 kts 217°
2026-04-15 09:34 50.09106 14.28203 1209 ft 16 kts 237°
2026-04-15 09:35 50.09078 14.28086 1207 ft 8 kts 287°
2026-04-15 09:35 50.09116 14.28021 1208 ft 8 kts 305°
2026-04-15 09:35 50.09186 14.27873 1210 ft 53 kts 307°
2026-04-15 09:35 50.09610 14.27016 1230 ft 140 kts 309°
2026-04-15 09:36 50.10274 14.25594 1757 ft 181 kts 308°
2026-04-15 09:36 50.11104 14.23903 2540 ft 210 kts 309°
2026-04-15 09:36 50.12031 14.22063 3525 ft 218 kts 308°
2026-04-15 09:36 50.13031 14.19994 3950 ft 260 kts 307°
2026-04-15 09:37 50.14115 14.17707 5155 ft 264 kts 306°
2026-04-15 09:37 50.15214 14.15394 6489 ft 266 kts 306°
2026-04-15 09:37 50.16329 14.13056 7665 ft 271 kts 306°
2026-04-15 09:37 50.17468 14.10680 8847 ft 276 kts 306°
2026-04-15 09:38 50.18628 14.08264 10071 ft 280 kts 306°
2026-04-15 09:38 50.19815 14.05793 11009 ft 293 kts 306°
2026-04-15 09:38 50.21102 14.03110 11355 ft 325 kts 306°
2026-04-15 09:38 50.22672 14.00448 12032 ft 342 kts 323°
2026-04-15 09:39 50.24852 13.98930 13128 ft 347 kts 346°
2026-04-15 09:39 50.27273 13.98628 14213 ft 352 kts 357°
2026-04-15 09:39 50.29738 13.98519 15077 ft 358 kts 356°
2026-04-15 09:39 50.32244 13.98366 15968 ft 362 kts 356°
2026-04-15 09:40 50.34745 13.98333 16857 ft 368 kts
2026-04-15 09:40 50.37197 13.99536 17777 ft 373 kts 25°
2026-04-15 09:40 50.39528 14.01387 18730 ft 377 kts 25°
2026-04-15 09:40 50.41873 14.03275 19495 ft 382 kts 31°
2026-04-15 09:41 50.43827 14.06131 20321 ft 388 kts 53°
2026-04-15 09:41 50.45000 14.09949 21244 ft 393 kts 73°
2026-04-15 09:41 50.45287 14.14233 22066 ft 401 kts 92°
2026-04-15 09:41 50.44596 14.18506 22823 ft 410 kts 113°
2026-04-15 09:42 50.42962 14.22199 23241 ft 416 kts 134°
2026-04-15 09:42 50.40549 14.24769 23299 ft 427 kts 154°
2026-04-15 09:42 50.37829 14.26694 23286 ft 429 kts 155°
2026-04-15 09:42 50.35115 14.28603 23288 ft 426 kts 155°
2026-04-15 09:43 50.32417 14.30508 23282 ft 425 kts 155°
2026-04-15 09:43 50.29725 14.32429 23284 ft 425 kts 154°
2026-04-15 09:43 50.27041 14.34363 23289 ft 424 kts 154°
2026-04-15 09:43 50.24362 14.36307 23289 ft 424 kts 154°
2026-04-15 09:44 50.21683 14.38259 23299 ft 425 kts 154°
2026-04-15 09:44 50.19040 14.40188 23291 ft 426 kts 154°
2026-04-15 09:44 50.16323 14.42169 23294 ft 426 kts 154°
2026-04-15 09:44 50.13668 14.44104 23298 ft 426 kts 154°
2026-04-15 09:45 50.10978 14.46061 23294 ft 426 kts 154°
2026-04-15 09:45 50.08285 14.48018 23293 ft 426 kts 154°
2026-04-15 09:45 50.05599 14.49966 23289 ft 426 kts 154°
2026-04-15 09:45 50.02909 14.51915 23296 ft 426 kts 154°
2026-04-15 09:46 50.00225 14.53856 23293 ft 425 kts 154°
2026-04-15 09:46 49.97542 14.55795 23291 ft 425 kts 154°
2026-04-15 09:46 49.94860 14.57731 23286 ft 425 kts 154°
2026-04-15 09:46 49.92181 14.59662 23278 ft 424 kts 154°
2026-04-15 09:47 49.89504 14.61590 23278 ft 424 kts 154°
2026-04-15 09:47 49.86834 14.63510 23290 ft 423 kts 154°
2026-04-15 09:47 49.84158 14.65432 23280 ft 423 kts 154°
2026-04-15 09:47 49.81478 14.67354 23270 ft 423 kts 154°
2026-04-15 09:48 49.78807 14.69268 23269 ft 423 kts 154°
2026-04-15 09:48 49.76134 14.71181 23275 ft 423 kts 154°
2026-04-15 09:48 49.73458 14.73094 23265 ft 423 kts 155°
2026-04-15 09:48 49.70789 14.74999 23260 ft 423 kts 155°
2026-04-15 09:49 49.68123 14.76900 23263 ft 422 kts 155°
2026-04-15 09:49 49.65497 14.78771 23264 ft 421 kts 155°
2026-04-15 09:49 49.62834 14.80666 23269 ft 421 kts 155°
2026-04-15 09:49 49.60171 14.82558 23269 ft 421 kts 155°
2026-04-15 09:50 49.57518 14.84455 23260 ft 420 kts 153°
2026-04-15 09:50 49.55150 14.87054 23263 ft 419 kts 133°
2026-04-15 09:50 49.53491 14.90712 23268 ft 417 kts 115°
2026-04-15 09:50 49.52572 14.94925 23259 ft 416 kts 98°
2026-04-15 09:51 49.52241 14.99347 23273 ft 415 kts 95°
2026-04-15 09:51 49.51953 15.03777 23259 ft 416 kts 95°
2026-04-15 09:51 49.51663 15.08222 23254 ft 417 kts 95°
2026-04-15 09:51 49.51363 15.12658 23251 ft 417 kts 95°
2026-04-15 09:52 49.51051 15.17106 23256 ft 418 kts 95°
2026-04-15 09:52 49.50730 15.21557 23264 ft 418 kts 96°
2026-04-15 09:52 49.50407 15.25944 23252 ft 419 kts 96°
2026-04-15 09:52 49.50076 15.30393 23247 ft 419 kts 96°
2026-04-15 09:53 49.49742 15.34848 23248 ft 419 kts 96°
2026-04-15 09:53 49.49407 15.39299 23254 ft 419 kts 96°
2026-04-15 09:53 49.49070 15.43754 23253 ft 419 kts 96°
2026-04-15 09:53 49.48731 15.48209 23249 ft 419 kts 96°
2026-04-15 09:54 49.48390 15.52675 23251 ft 420 kts 96°
2026-04-15 09:54 49.48047 15.57138 23252 ft 420 kts 96°
2026-04-15 09:54 49.47704 15.61589 23245 ft 420 kts 96°
2026-04-15 09:54 49.47359 15.66052 23249 ft 420 kts 96°
2026-04-15 09:55 49.47012 15.70506 23246 ft 420 kts 96°
2026-04-15 09:55 49.46648 15.74972 23243 ft 421 kts 98°
2026-04-15 09:55 49.45951 15.79339 23242 ft 421 kts 109°
2026-04-15 09:55 49.44775 15.83460 23245 ft 421 kts 118°
2026-04-15 09:56 49.43388 15.87422 23250 ft 422 kts 118°
2026-04-15 09:56 49.41996 15.91394 23244 ft 422 kts 118°
2026-04-15 09:56 49.39252 15.99302 23251 ft 422 kts 118°
2026-04-15 09:57 49.37878 16.03295 23251 ft 423 kts 118°
2026-04-15 09:57 49.36507 16.07288 23253 ft 423 kts 118°
2026-04-15 09:57 49.35135 16.11287 23258 ft 423 kts 118°
2026-04-15 09:57 49.33764 16.15279 23256 ft 423 kts 118°
2026-04-15 09:58 49.32389 16.19279 23263 ft 423 kts 118°
2026-04-15 09:58 49.31013 16.23274 23260 ft 424 kts 118°
2026-04-15 09:58 49.29634 16.27269 23261 ft 424 kts 118°
2026-04-15 09:58 49.28251 16.31271 23262 ft 424 kts 118°
2026-04-15 09:59 49.26872 16.35254 23261 ft 424 kts 118°
2026-04-15 09:59 49.25488 16.39246 23259 ft 424 kts 118°
2026-04-15 09:59 49.24102 16.43235 23257 ft 424 kts 118°
2026-04-15 09:59 49.22716 16.47222 23265 ft 425 kts 118°
2026-04-15 10:00 49.21327 16.51210 23265 ft 425 kts 118°
2026-04-15 10:00 49.19936 16.55201 23270 ft 425 kts 118°
2026-04-15 10:00 49.18539 16.59199 23262 ft 425 kts 118°
2026-04-15 10:00 49.17145 16.63184 23264 ft 425 kts 118°
2026-04-15 10:01 49.16035 16.67351 23248 ft 426 kts 103°
2026-04-15 10:01 49.15766 16.71842 23277 ft 425 kts 86°
2026-04-15 10:01 49.16309 16.76255 23278 ft 423 kts 71°
2026-04-15 10:01 49.17247 16.80512 23272 ft 423 kts 70°
2026-04-15 10:02 49.18187 16.84768 23262 ft 423 kts 70°
2026-04-15 10:02 49.19106 16.88986 23256 ft 423 kts 71°
2026-04-15 10:02 49.20027 16.93285 23258 ft 424 kts 71°
2026-04-15 10:02 49.20933 16.97572 23257 ft 422 kts 71°
2026-04-15 10:03 49.21822 17.01821 23251 ft 416 kts 71°
2026-04-15 10:03 49.22699 17.06036 23269 ft 416 kts 71°
2026-04-15 10:03 49.23576 17.10261 23266 ft 417 kts 71°
2026-04-15 10:03 49.24453 17.14496 23165 ft 417 kts 71°
2026-04-15 10:04 49.25328 17.18735 22609 ft 415 kts 71°
2026-04-15 10:04 49.26192 17.22927 22028 ft 410 kts 72°
2026-04-15 10:04 49.27044 17.27067 21350 ft 406 kts 72°
2026-04-15 10:04 49.27887 17.31171 20743 ft 402 kts 72°
2026-04-15 10:05 49.28721 17.35241 20143 ft 398 kts 72°
2026-04-15 10:05 49.29544 17.39263 19567 ft 394 kts 72°
2026-04-15 10:05 49.30359 17.43253 18996 ft 391 kts 72°
2026-04-15 10:05 49.31167 17.47217 18421 ft 388 kts 72°
2026-04-15 10:06 49.31965 17.51142 17779 ft 385 kts 72°
2026-04-15 10:06 49.32852 17.54937 17184 ft 381 kts 65°
2026-04-15 10:06 49.34012 17.58559 16651 ft 376 kts 61°
2026-04-15 10:06 49.35254 17.62068 16088 ft 372 kts 60°
2026-04-15 10:07 49.36496 17.65536 15538 ft 369 kts 60°
2026-04-15 10:07 49.37711 17.68987 15001 ft 366 kts 61°
2026-04-15 10:07 49.38899 17.72432 14460 ft 364 kts 61°
2026-04-15 10:07 49.40063 17.75861 13903 ft 361 kts 62°
2026-04-15 10:08 49.41214 17.79279 13298 ft 359 kts 62°
2026-04-15 10:08 49.42352 17.82678 12733 ft 356 kts 62°
2026-04-15 10:08 49.43476 17.86042 12181 ft 353 kts 62°
2026-04-15 10:08 49.44592 17.89386 11649 ft 350 kts 62°
2026-04-15 10:09 49.45694 17.92692 11117 ft 347 kts 62°
2026-04-15 10:09 49.46788 17.95977 10797 ft 338 kts 62°
2026-04-15 10:09 49.48062 17.98903 10632 ft 324 kts 47°
2026-04-15 10:09 49.49616 18.01308 10510 ft 311 kts 44°
2026-04-15 10:10 49.51116 18.03623 10380 ft 301 kts 44°
2026-04-15 10:10 49.52560 18.05893 10172 ft 294 kts 45°
2026-04-15 10:10 49.53996 18.08174 9834 ft 294 kts 45°
2026-04-15 10:10 49.55379 18.10385 9395 ft 295 kts 45°
2026-04-15 10:11 49.56812 18.12685 8924 ft 298 kts 46°
2026-04-15 10:11 49.58242 18.14987 8541 ft 296 kts 46°
2026-04-15 10:11 49.59660 18.17273 8182 ft 293 kts 46°
2026-04-15 10:11 49.61062 18.19536 7850 ft 290 kts 46°
2026-04-15 10:12 49.62449 18.21778 7506 ft 288 kts 46°
2026-04-15 10:12 49.63828 18.24007 7179 ft 285 kts 46°
2026-04-15 10:12 49.65192 18.26215 6849 ft 283 kts 46°
2026-04-15 10:12 49.66541 18.28402 6524 ft 280 kts 46°
2026-04-15 10:13 49.67883 18.30578 6185 ft 279 kts 46°
2026-04-15 10:13 49.69220 18.32747 5860 ft 279 kts 46°
2026-04-15 10:13 49.70558 18.34920 5516 ft 278 kts 46°
2026-04-15 10:13 49.71860 18.37035 5367 ft 270 kts 47°
2026-04-15 10:14 49.73137 18.39112 5222 ft 262 kts 46°
2026-04-15 10:14 49.74573 18.40740 5059 ft 254 kts 20°
2026-04-15 10:14 49.76279 18.41023 4992 ft 244 kts 351°
2026-04-15 10:14 49.77843 18.40167 4889 ft 236 kts 328°
2026-04-15 10:15 49.79104 18.38620 4794 ft 229 kts 317°
2026-04-15 10:15 49.80259 18.36917 4548 ft 229 kts 315°
2026-04-15 10:15 49.81019 18.35779 4391 ft 229 kts 316°
2026-04-15 10:15 49.82143 18.34028 4134 ft 229 kts 308°
2026-04-15 10:16 49.82637 18.31779 4009 ft 220 kts 264°
2026-04-15 10:16 49.82018 18.29753 4004 ft 206 kts 223°
2026-04-15 10:16 49.80995 18.28308 4002 ft 192 kts 223°
2026-04-15 10:16 49.80093 18.27074 3987 ft 180 kts 220°
2026-04-15 10:17 49.79173 18.25801 3789 ft 175 kts 223°
2026-04-15 10:17 49.78284 18.24499 3402 ft 173 kts 221°
2026-04-15 10:17 49.77440 18.23324 3246 ft 158 kts 222°
2026-04-15 10:17 49.76691 18.22246 3026 ft 147 kts 223°
2026-04-15 10:18 49.75969 18.21199 2757 ft 138 kts 222°
2026-04-15 10:18 49.75271 18.20189 2382 ft 135 kts 225°
2026-04-15 10:18 49.74622 18.19167 2025 ft 129 kts 227°
2026-04-15 10:18 49.74006 18.18171 1859 ft 131 kts 226°
2026-04-15 10:19 49.73370 18.17144 1637 ft 132 kts 226°
2026-04-15 10:19 49.72739 18.16126 1449 ft 131 kts 226°
2026-04-15 10:19 49.72111 18.15111 1252 ft 131 kts 227°
2026-04-15 10:19 49.71477 18.14088 1083 ft 132 kts 227°
2026-04-15 10:20 49.70845 18.13065 899 ft 131 kts 227°
2026-04-15 10:20 49.70248 18.12098 825 ft 104 kts 226°
2026-04-15 10:20 49.69857 18.11465 830 ft 61 kts 225°
2026-04-15 10:20 49.69630 18.11097 830 ft 34 kts 226°
2026-04-15 10:21 49.69502 18.10893 834 ft 25 kts 226°
2026-04-15 10:21 49.69386 18.10706 829 ft 23 kts 226°
2026-04-15 10:21 49.69277 18.10530 837 ft 22 kts 226°
2026-04-15 10:21 49.69171 18.10358 837 ft 22 kts 226°
2026-04-15 10:22 49.69068 18.10192 843 ft 21 kts 226°
2026-04-15 10:22 49.68978 18.10052 836 ft 11 kts 212°
2026-04-15 10:22 49.68914 18.10090 838 ft 11 kts 127°
2026-04-15 10:22 49.68862 18.10170 843 ft 10 kts 137°
2026-04-15 10:23 49.68810 18.10246 840 ft 10 kts 136°
2026-04-15 10:23 49.68760 18.10320 843 ft 10 kts 130°
2026-04-15 10:23 49.68776 18.10415 833 ft 10 kts 48°
2026-04-15 10:23 49.68822 18.10490 841 ft 9 kts 46°
2026-04-15 10:24 49.68867 18.10563 841 ft 9 kts 46°
2026-04-15 10:24 49.68910 18.10634 836 ft 9 kts 46°
2026-04-15 10:24 49.68953 18.10703 839 ft 10 kts 46°
2026-04-15 10:24 49.69021 18.10813 836 ft 20 kts 46°
2026-04-15 10:25 49.69140 18.11003 832 ft 29 kts 46°
2026-04-15 10:25 49.69302 18.11264 831 ft 37 kts 46°
2026-04-15 10:25 49.69482 18.11557 831 ft 37 kts 46°
2026-04-15 10:25 49.69657 18.11841 829 ft 35 kts 46°
2026-04-15 10:26 49.69821 18.12108 826 ft 33 kts 46°
2026-04-15 10:26 49.69959 18.12334 824 ft 23 kts 46°
2026-04-15 10:26 49.70071 18.12509 822 ft 22 kts 47°
2026-04-15 10:26 49.70176 18.12682 821 ft 22 kts 46°
2026-04-15 10:27 49.70242 18.12815 820 ft 9 kts 85°
2026-04-15 10:27 49.70222 18.12869 818 ft 3 kts 128°
2026-04-15 10:27 49.70229 18.12878 817 ft 1 kts 17°
2026-04-15 10:27 49.70230 18.12876 817 ft 0 kts 354°